This is the latest recevied weather packets stored in our database for station/object XE1GMR. If no packets are shown the sender has not sent any weather packets the latest 10 day(s).
| Time | Temp. | Humidity | Pressure | Rain* | Wind** | Luminosity | Snow |
|---|---|---|---|---|---|---|---|
| 1777815404 | 18.33° C | 71% | 1123.9 hPa | 0 mm | - | 78 W/m² | - |
| 1777815101 | 18.89° C | 71% | 1123.9 hPa | 0 mm | - | 68 W/m² | - |
| 1777814797 | 18.89° C | 71% | 1124.1 hPa | 0 mm | - | 59 W/m² | - |
| 1777814495 | 18.89° C | 71% | 1123.9 hPa | 0 mm | - | 52 W/m² | - |
| 1777814192 | 18.89° C | 71% | 1123.7 hPa | 0 mm | - | 68 W/m² | - |
| 1777813889 | 18.33° C | 71% | 1123.6 hPa | 0 mm | - | 88 W/m² | - |
| 1777813586 | 18.33° C | 71% | 1123.6 hPa | 0 mm | - | 64 W/m² | - |
| 1777813284 | 18.33° C | 71% | 1123.5 hPa | 0 mm | - | 56 W/m² | - |
| 1777812980 | 18.33° C | 71% | 1123.6 hPa | 0 mm | - | 46 W/m² | - |
| 1777812678 | 18.33° C | 71% | 1123.4 hPa | 0 mm | - | 52 W/m² | - |
| 1777812374 | 18.33° C | 71% | 1123.4 hPa | 0 mm | - | 52 W/m² | - |
| 1777812073 | 18.33° C | 71% | 1123.5 hPa | 0 mm | - | 47 W/m² | - |
| 1777811771 | 18.33° C | 71% | 1123.4 hPa | 0 mm | - | 38 W/m² | - |
| 1777811467 | 18.33° C | 72% | 1123.6 hPa | 0 mm | - | 21 W/m² | - |
| 1777811163 | 17.78° C | 72% | 1123.6 hPa | 0 mm | - | 9 W/m² | - |
| 1777810861 | 17.78° C | 72% | 1123.6 hPa | 0 mm | - | 3 W/m² | - |
| 1777810557 | 17.78° C | 72% | 1123.5 hPa | 0 mm | - | 0 W/m² | - |
| 1777810254 | 17.78° C | 72% | 1123.6 hPa | 0 mm | - | 0 W/m² | - |
| 1777809950 | 17.78° C | 72% | 1123.5 hPa | 0 mm | - | 0 W/m² | - |
| 1777809649 | 17.78° C | 72% | 1123.4 hPa | 0 mm | - | 0 W/m² | - |
| 1777809346 | 17.78° C | 72% | 1123.2 hPa | 0 mm | - | 0 W/m² | - |
| 1777809043 | 17.78° C | 72% | 1123.2 hPa | 0 mm | - | 0 W/m² | - |
| 1777808741 | 17.78° C | 72% | 1123.3 hPa | 0 mm | - | 0 W/m² | - |
| 1777808437 | 17.78° C | 72% | 1123.3 hPa | 0 mm | - | 0 W/m² | - |
| 1777808135 | 17.78° C | 71% | 1123.1 hPa | 0 mm | - | 0 W/m² | - |
* Rain latest hour (hover to see other rain measurements)
** Current wind speed in m/s (hover to see current wind gust speed)